Year,Month,Day,Hour,Minute,Value (Times are PST for windgust in km/hr)
2012,01,21,00,00,16.10
2012,01,21,00,01,17.70
2012,01,21,00,02,19.30
2012,01,21,00,03,17.70
2012,01,21,00,04,14.50
2012,01,21,00,05,22.50
2012,01,21,00,06,25.70
2012,01,21,00,07,37.00
2012,01,21,00,08,19.30
2012,01,21,00,09,22.50
2012,01,21,00,10,22.50
2012,01,21,00,11,22.50
2012,01,21,00,12,19.30
2012,01,21,00,13,20.90
2012,01,21,00,14,9.60
2012,01,21,00,15,17.70
2012,01,21,00,16,24.20
2012,01,21,00,17,24.20
2012,01,21,00,18,20.90
2012,01,21,00,19,33.80
2012,01,21,00,20,27.40
2012,01,21,00,21,20.90
2012,01,21,00,22,24.20
2012,01,21,00,23,25.70
2012,01,21,00,24,22.50
2012,01,21,00,25,16.10
2012,01,21,00,26,14.50
2012,01,21,00,27,29.00
2012,01,21,00,28,17.70
2012,01,21,00,29,32.20
2012,01,21,00,30,20.90
2012,01,21,00,31,24.20
2012,01,21,00,32,27.40
2012,01,21,00,33,30.60
2012,01,21,00,34,20.90
2012,01,21,00,35,22.50
2012,01,21,00,36,22.50
2012,01,21,00,37,24.20
2012,01,21,00,38,17.70
2012,01,21,00,39,17.70
2012,01,21,00,40,27.40
2012,01,21,00,41,25.70
2012,01,21,00,42,24.20
2012,01,21,00,43,19.30
2012,01,21,00,44,22.50
2012,01,21,00,45,22.50
2012,01,21,00,46,24.20
2012,01,21,00,47,25.70
2012,01,21,00,48,22.50
2012,01,21,00,49,24.20
2012,01,21,00,50,22.50
2012,01,21,00,51,22.50
2012,01,21,00,52,19.30
2012,01,21,00,53,17.70
2012,01,21,00,54,20.90
2012,01,21,00,55,20.90
2012,01,21,00,56,22.50
2012,01,21,00,57,22.50
2012,01,21,00,58,24.20
2012,01,21,00,59,20.90
2012,01,21,01,00,20.90
2012,01,21,01,01,22.50
2012,01,21,01,02,25.70
2012,01,21,01,03,29.00
2012,01,21,01,04,30.60
2012,01,21,01,05,25.70
2012,01,21,01,06,29.00
2012,01,21,01,07,19.30
2012,01,21,01,08,14.50
2012,01,21,01,09,22.50
2012,01,21,01,10,22.50
2012,01,21,01,11,24.20
2012,01,21,01,12,24.20
2012,01,21,01,13,38.60
2012,01,21,01,14,24.20
2012,01,21,01,15,27.40
2012,01,21,01,16,30.60
2012,01,21,01,17,29.00
2012,01,21,01,18,25.70
2012,01,21,01,19,27.40
2012,01,21,01,20,27.40
2012,01,21,01,21,24.20
2012,01,21,01,22,25.70
2012,01,21,01,23,29.00
2012,01,21,01,24,22.50
2012,01,21,01,25,27.40
2012,01,21,01,26,19.30
2012,01,21,01,27,25.70
2012,01,21,01,28,25.70
2012,01,21,01,29,29.00
2012,01,21,01,30,32.20
2012,01,21,01,31,37.00
2012,01,21,01,32,27.40
2012,01,21,01,33,22.50
2012,01,21,01,34,22.50
2012,01,21,01,35,22.50
2012,01,21,01,36,22.50
2012,01,21,01,37,24.20
2012,01,21,01,38,30.60
2012,01,21,01,39,22.50
2012,01,21,01,40,29.00
2012,01,21,01,41,24.20
2012,01,21,01,42,32.20
2012,01,21,01,43,25.70
2012,01,21,01,44,25.70
2012,01,21,01,45,22.50
2012,01,21,01,46,27.40
2012,01,21,01,47,33.80
2012,01,21,01,48,25.70
2012,01,21,01,49,16.10
2012,01,21,01,50,24.20
2012,01,21,01,51,22.50
2012,01,21,01,52,20.90
2012,01,21,01,53,19.30
2012,01,21,01,54,20.90
2012,01,21,01,55,20.90
2012,01,21,01,56,25.70
2012,01,21,01,57,24.20
2012,01,21,01,58,19.30
2012,01,21,01,59,19.30
2012,01,21,02,00,17.70
2012,01,21,02,01,25.70
2012,01,21,02,02,25.70
2012,01,21,02,03,27.40
2012,01,21,02,04,24.20
2012,01,21,02,05,22.50
2012,01,21,02,06,29.00
2012,01,21,02,07,24.20
2012,01,21,02,08,37.00
2012,01,21,02,09,24.20
2012,01,21,02,10,40.20
2012,01,21,02,11,30.60
2012,01,21,02,12,25.70
2012,01,21,02,13,22.50
2012,01,21,02,14,32.20
2012,01,21,02,15,27.40
2012,01,21,02,16,29.00
2012,01,21,02,17,27.40
2012,01,21,02,18,19.30
2012,01,21,02,19,27.40
2012,01,21,02,20,33.80
2012,01,21,02,21,32.20
2012,01,21,02,22,30.60
2012,01,21,02,23,37.00
2012,01,21,02,24,22.50
2012,01,21,02,25,45.10
2012,01,21,02,26,33.80
2012,01,21,02,27,22.50
2012,01,21,02,28,20.90
2012,01,21,02,29,20.90
2012,01,21,02,30,24.20
2012,01,21,02,31,16.10
2012,01,21,02,32,27.40
2012,01,21,02,33,17.70
2012,01,21,02,34,22.50
2012,01,21,02,35,14.50
2012,01,21,02,36,17.70
2012,01,21,02,37,19.30
2012,01,21,02,38,22.50
2012,01,21,02,39,19.30
2012,01,21,02,40,17.70
2012,01,21,02,41,19.30
2012,01,21,02,42,20.90
2012,01,21,02,43,19.30
2012,01,21,02,44,9.60
2012,01,21,02,45,14.50
2012,01,21,02,46,16.10
2012,01,21,02,47,16.10
2012,01,21,02,48,20.90
2012,01,21,02,49,30.60
2012,01,21,02,50,12.90
2012,01,21,02,51,27.40
2012,01,21,02,52,22.50
2012,01,21,02,53,16.10
2012,01,21,02,54,12.90
2012,01,21,02,55,12.90
2012,01,21,02,56,20.90
2012,01,21,02,57,12.90
2012,01,21,02,58,17.70
2012,01,21,02,59,11.30
2012,01,21,03,00,12.90
2012,01,21,03,01,11.30
2012,01,21,03,02,16.10
2012,01,21,03,03,14.50
2012,01,21,03,04,16.10
2012,01,21,03,05,11.30
2012,01,21,03,06,12.90
2012,01,21,03,07,14.50
2012,01,21,03,08,9.60
2012,01,21,03,09,11.30
2012,01,21,03,10,8.10
2012,01,21,03,11,9.60
2012,01,21,03,12,14.50
2012,01,21,03,13,9.60
2012,01,21,03,14,12.90
2012,01,21,03,15,11.30
2012,01,21,03,16,8.10
2012,01,21,03,17,11.30
2012,01,21,03,18,9.60
2012,01,21,03,19,8.10
2012,01,21,03,20,8.10
2012,01,21,03,21,8.10
2012,01,21,03,22,9.60
2012,01,21,03,23,8.10
2012,01,21,03,24,9.60
2012,01,21,03,25,9.60
2012,01,21,03,26,11.30
2012,01,21,03,27,11.30
2012,01,21,03,28,8.10
2012,01,21,03,29,9.60
2012,01,21,03,30,9.60
2012,01,21,03,31,11.30
2012,01,21,03,32,8.10
2012,01,21,03,33,6.40
2012,01,21,03,34,6.40
2012,01,21,03,35,8.10
2012,01,21,03,36,9.60
2012,01,21,03,37,12.90
2012,01,21,03,38,14.50
2012,01,21,03,39,17.70
2012,01,21,03,40,19.30
2012,01,21,03,41,24.20
2012,01,21,03,42,22.50
2012,01,21,03,43,16.10
2012,01,21,03,44,16.10
2012,01,21,03,45,22.50
2012,01,21,03,46,20.90
2012,01,21,03,47,29.00
2012,01,21,03,48,20.90
2012,01,21,03,49,22.50
2012,01,21,03,50,27.40
2012,01,21,03,51,17.70
2012,01,21,03,52,20.90
2012,01,21,03,53,17.70
2012,01,21,03,54,19.30
2012,01,21,03,55,16.10
2012,01,21,03,56,29.00
2012,01,21,03,57,24.20
2012,01,21,03,58,25.70
2012,01,21,03,59,22.50
2012,01,21,04,00,19.30
2012,01,21,04,01,19.30
2012,01,21,04,02,27.40
2012,01,21,04,03,20.90
2012,01,21,04,04,25.70
2012,01,21,04,05,24.20
2012,01,21,04,06,16.10
2012,01,21,04,07,14.50
2012,01,21,04,08,16.10
2012,01,21,04,09,17.70
2012,01,21,04,10,17.70
2012,01,21,04,11,20.90
2012,01,21,04,12,30.60
2012,01,21,04,13,30.60
2012,01,21,04,14,30.60
2012,01,21,04,15,33.80
2012,01,21,04,16,22.50
2012,01,21,04,17,19.30
2012,01,21,04,18,24.20
2012,01,21,04,19,24.20
2012,01,21,04,20,22.50
2012,01,21,04,21,20.90
2012,01,21,04,22,33.80
2012,01,21,04,23,20.90
2012,01,21,04,24,19.30
2012,01,21,04,25,22.50
2012,01,21,04,26,29.00
2012,01,21,04,27,29.00
2012,01,21,04,28,27.40
2012,01,21,04,29,30.60
2012,01,21,04,30,29.00
2012,01,21,04,31,29.00
2012,01,21,04,32,20.90
2012,01,21,04,33,27.40
2012,01,21,04,34,24.20
2012,01,21,04,35,22.50
2012,01,21,04,36,20.90
2012,01,21,04,37,25.70
2012,01,21,04,38,20.90
2012,01,21,04,39,17.70
2012,01,21,04,40,17.70
2012,01,21,04,41,17.70
2012,01,21,04,42,25.70
2012,01,21,04,43,29.00
2012,01,21,04,44,25.70
2012,01,21,04,45,17.70
2012,01,21,04,46,37.00
2012,01,21,04,47,30.60
2012,01,21,04,48,22.50
2012,01,21,04,49,29.00
2012,01,21,04,50,25.70
2012,01,21,04,51,22.50
2012,01,21,04,52,22.50
2012,01,21,04,53,25.70
2012,01,21,04,54,20.90
2012,01,21,04,55,12.90
2012,01,21,04,56,14.50
2012,01,21,04,57,24.20
2012,01,21,04,58,19.30
2012,01,21,04,59,12.90
2012,01,21,05,00,27.40
2012,01,21,05,01,16.10
2012,01,21,05,02,19.30
2012,01,21,05,03,12.90
2012,01,21,05,04,16.10
2012,01,21,05,05,9.60
2012,01,21,05,06,20.90
2012,01,21,05,07,14.50
2012,01,21,05,08,9.60
2012,01,21,05,09,9.60
2012,01,21,05,10,12.90
2012,01,21,05,11,12.90
2012,01,21,05,12,14.50
2012,01,21,05,13,11.30
2012,01,21,05,14,12.90
2012,01,21,05,15,11.30
2012,01,21,05,16,11.30
2012,01,21,05,17,12.90
2012,01,21,05,18,11.30
2012,01,21,05,19,11.30
2012,01,21,05,20,12.90
2012,01,21,05,21,24.20
2012,01,21,05,22,16.10
2012,01,21,05,23,11.30
2012,01,21,05,24,17.70
2012,01,21,05,25,16.10
2012,01,21,05,26,20.90
2012,01,21,05,27,17.70
2012,01,21,05,28,25.70
2012,01,21,05,29,20.90
2012,01,21,05,30,17.70
2012,01,21,05,31,24.20
2012,01,21,05,32,20.90
2012,01,21,05,33,22.50
2012,01,21,05,34,9.60
2012,01,21,05,35,29.00
2012,01,21,05,36,25.70
2012,01,21,05,37,16.10
2012,01,21,05,38,20.90
2012,01,21,05,39,22.50
2012,01,21,05,40,20.90
2012,01,21,05,41,19.30
2012,01,21,05,42,12.90
2012,01,21,05,43,22.50
2012,01,21,05,44,20.90
2012,01,21,05,45,20.90
2012,01,21,05,46,19.30
2012,01,21,05,47,17.70
2012,01,21,05,48,17.70
2012,01,21,05,49,19.30
2012,01,21,05,50,22.50
2012,01,21,05,51,22.50
2012,01,21,05,52,25.70
2012,01,21,05,53,19.30
2012,01,21,05,54,17.70
2012,01,21,05,55,19.30
2012,01,21,05,56,20.90
2012,01,21,05,57,19.30
2012,01,21,05,58,17.70
2012,01,21,05,59,24.20
2012,01,21,06,00,17.70
2012,01,21,06,01,14.50
2012,01,21,06,02,22.50
2012,01,21,06,03,25.70
2012,01,21,06,04,25.70
2012,01,21,06,05,27.40
2012,01,21,06,06,22.50
2012,01,21,06,07,25.70
2012,01,21,06,08,30.60
2012,01,21,06,09,22.50
2012,01,21,06,10,17.70
2012,01,21,06,11,19.30
2012,01,21,06,12,16.10
2012,01,21,06,13,24.20
2012,01,21,06,14,20.90
2012,01,21,06,15,14.50
2012,01,21,06,16,33.80
2012,01,21,06,17,16.10
2012,01,21,06,18,19.30
2012,01,21,06,19,25.70
2012,01,21,06,20,20.90
2012,01,21,06,21,24.20
2012,01,21,06,22,25.70
2012,01,21,06,23,19.30
2012,01,21,06,24,25.70
2012,01,21,06,25,11.30
2012,01,21,06,26,14.50
2012,01,21,06,27,20.90
2012,01,21,06,28,25.70
2012,01,21,06,29,25.70
2012,01,21,06,30,25.70
2012,01,21,06,31,27.40
2012,01,21,06,32,24.20
2012,01,21,06,33,20.90
2012,01,21,06,34,29.00
2012,01,21,06,35,25.70
2012,01,21,06,36,25.70
2012,01,21,06,37,20.90
2012,01,21,06,38,24.20
2012,01,21,06,39,17.70
2012,01,21,06,40,17.70
2012,01,21,06,41,24.20
2012,01,21,06,42,32.20
2012,01,21,06,43,29.00
2012,01,21,06,44,25.70
2012,01,21,06,45,20.90
2012,01,21,06,46,27.40
2012,01,21,06,47,25.70
2012,01,21,06,48,33.80
2012,01,21,06,49,27.40
2012,01,21,06,50,35.40
2012,01,21,06,51,38.60
2012,01,21,06,52,37.00
2012,01,21,06,53,27.40
2012,01,21,06,54,25.70
2012,01,21,06,55,33.80
2012,01,21,06,56,32.20
2012,01,21,06,57,24.20
2012,01,21,06,58,19.30
2012,01,21,06,59,27.40
2012,01,21,07,00,27.40
2012,01,21,07,01,29.00
2012,01,21,07,02,16.10
2012,01,21,07,03,20.90
2012,01,21,07,04,29.00
2012,01,21,07,05,24.20
2012,01,21,07,06,17.70
2012,01,21,07,07,17.70
2012,01,21,07,08,16.10
2012,01,21,07,09,22.50
2012,01,21,07,10,29.00
2012,01,21,07,11,20.90
2012,01,21,07,12,17.70
2012,01,21,07,13,22.50
2012,01,21,07,14,16.10
2012,01,21,07,15,17.70
2012,01,21,07,16,14.50
2012,01,21,07,17,14.50
2012,01,21,07,18,14.50
2012,01,21,07,19,17.70
2012,01,21,07,20,17.70
2012,01,21,07,21,24.20
2012,01,21,07,22,14.50
2012,01,21,07,23,22.50
2012,01,21,07,24,19.30
2012,01,21,07,25,22.50
2012,01,21,07,26,22.50
2012,01,21,07,27,19.30
2012,01,21,07,28,19.30
2012,01,21,07,29,12.90
2012,01,21,07,30,20.90
2012,01,21,07,31,17.70
2012,01,21,07,32,16.10
2012,01,21,07,33,32.20
2012,01,21,07,34,25.70
2012,01,21,07,35,27.40
2012,01,21,07,36,29.00
2012,01,21,07,37,35.40
2012,01,21,07,38,32.20
2012,01,21,07,39,27.40
2012,01,21,07,40,27.40
2012,01,21,07,41,29.00
2012,01,21,07,42,17.70
2012,01,21,07,43,30.60
2012,01,21,07,44,22.50
2012,01,21,07,45,29.00
2012,01,21,07,46,25.70
2012,01,21,07,47,22.50
2012,01,21,07,48,19.30
2012,01,21,07,49,27.40
2012,01,21,07,50,22.50
2012,01,21,07,51,29.00
2012,01,21,07,52,20.90
2012,01,21,07,53,25.70
2012,01,21,07,54,27.40
2012,01,21,07,55,25.70
2012,01,21,07,56,20.90
2012,01,21,07,57,22.50
2012,01,21,07,58,25.70
2012,01,21,07,59,25.70
2012,01,21,08,00,22.50
2012,01,21,08,01,16.10
2012,01,21,08,02,19.30
2012,01,21,08,03,24.20
2012,01,21,08,04,33.80
2012,01,21,08,05,25.70
2012,01,21,08,06,25.70
2012,01,21,08,07,20.90
2012,01,21,08,08,22.50
2012,01,21,08,09,12.90
2012,01,21,08,10,27.40
2012,01,21,08,11,22.50
2012,01,21,08,12,24.20
2012,01,21,08,13,16.10
2012,01,21,08,14,24.20
2012,01,21,08,15,22.50
2012,01,21,08,16,20.90
2012,01,21,08,17,29.00
2012,01,21,08,18,19.30
2012,01,21,08,19,32.20
2012,01,21,08,20,30.60
2012,01,21,08,21,29.00
2012,01,21,08,22,32.20
2012,01,21,08,23,20.90
2012,01,21,08,24,22.50
2012,01,21,08,25,22.50
2012,01,21,08,26,17.70
2012,01,21,08,27,22.50
2012,01,21,08,28,29.00
2012,01,21,08,29,20.90
2012,01,21,08,30,22.50
2012,01,21,08,31,29.00
2012,01,21,08,32,27.40
2012,01,21,08,33,27.40
2012,01,21,08,34,25.70
2012,01,21,08,35,20.90
2012,01,21,08,36,27.40
2012,01,21,08,37,20.90
2012,01,21,08,38,11.30
2012,01,21,08,39,12.90
2012,01,21,08,40,14.50
2012,01,21,08,41,14.50
2012,01,21,08,42,14.50
2012,01,21,08,43,14.50
2012,01,21,08,44,19.30
2012,01,21,08,45,11.30
2012,01,21,08,46,8.10
2012,01,21,08,47,9.60
2012,01,21,08,48,11.30
2012,01,21,08,49,9.60
2012,01,21,08,50,6.40
2012,01,21,08,51,11.30
2012,01,21,08,52,11.30
2012,01,21,08,53,11.30
2012,01,21,08,54,12.90
2012,01,21,08,55,12.90
2012,01,21,08,56,19.30
2012,01,21,08,57,11.30
2012,01,21,08,58,12.90
2012,01,21,08,59,12.90
2012,01,21,09,00,14.50
2012,01,21,09,01,9.60
2012,01,21,09,02,24.20
2012,01,21,09,03,17.70
2012,01,21,09,04,17.70
2012,01,21,09,05,14.50
2012,01,21,09,06,16.10
2012,01,21,09,07,19.30
2012,01,21,09,08,14.50
2012,01,21,09,09,17.70
2012,01,21,09,10,17.70
2012,01,21,09,11,16.10
2012,01,21,09,12,25.70
2012,01,21,09,13,32.20
2012,01,21,09,14,22.50
2012,01,21,09,15,20.90
2012,01,21,09,16,24.20
2012,01,21,09,17,17.70
2012,01,21,09,18,16.10
2012,01,21,09,19,17.70
2012,01,21,09,20,16.10
2012,01,21,09,21,22.50
2012,01,21,09,22,25.70
2012,01,21,09,23,27.40
2012,01,21,09,24,19.30
2012,01,21,09,25,22.50
2012,01,21,09,26,22.50
2012,01,21,09,27,27.40
2012,01,21,09,28,22.50
2012,01,21,09,29,27.40
2012,01,21,09,30,22.50
2012,01,21,09,31,20.90
2012,01,21,09,32,22.50
2012,01,21,09,33,32.20
2012,01,21,09,34,20.90
2012,01,21,09,35,27.40
2012,01,21,09,36,16.10
2012,01,21,09,37,20.90
2012,01,21,09,38,17.70
2012,01,21,09,39,30.60
2012,01,21,09,40,24.20
2012,01,21,09,41,25.70
2012,01,21,09,42,25.70
2012,01,21,09,43,14.50
2012,01,21,09,44,20.90
2012,01,21,09,45,14.50
2012,01,21,09,46,17.70
2012,01,21,09,47,17.70
2012,01,21,09,48,27.40
2012,01,21,09,49,38.60
2012,01,21,09,50,45.10
2012,01,21,09,51,37.00
2012,01,21,09,52,43.50
2012,01,21,09,53,24.20
2012,01,21,09,54,27.40
2012,01,21,09,55,17.70
2012,01,21,09,56,25.70
2012,01,21,09,57,17.70
2012,01,21,09,58,24.20
2012,01,21,09,59,22.50
2012,01,21,10,00,17.70
2012,01,21,10,01,22.50
2012,01,21,10,02,20.90
2012,01,21,10,03,12.90
2012,01,21,10,04,22.50
2012,01,21,10,05,30.60
2012,01,21,10,06,25.70
2012,01,21,10,07,24.20
2012,01,21,10,08,24.20
2012,01,21,10,09,17.70
2012,01,21,10,10,20.90
2012,01,21,10,11,14.50
2012,01,21,10,12,22.50
2012,01,21,10,13,19.30
2012,01,21,10,14,20.90
2012,01,21,10,15,16.10
2012,01,21,10,16,17.70
2012,01,21,10,17,14.50
2012,01,21,10,18,14.50
2012,01,21,10,19,17.70
2012,01,21,10,20,16.10
2012,01,21,10,21,22.50
2012,01,21,10,22,16.10
2012,01,21,10,23,19.30
2012,01,21,10,24,20.90
2012,01,21,10,25,19.30
2012,01,21,10,26,9.60
2012,01,21,10,27,17.70
2012,01,21,10,28,14.50
2012,01,21,10,29,19.30
2012,01,21,10,30,19.30
2012,01,21,10,31,17.70
2012,01,21,10,32,17.70
2012,01,21,10,33,22.50
2012,01,21,10,34,30.60
2012,01,21,10,35,20.90
2012,01,21,10,36,19.30
2012,01,21,10,37,16.10
2012,01,21,10,38,12.90
2012,01,21,10,39,14.50
2012,01,21,10,40,14.50
2012,01,21,10,41,14.50
2012,01,21,10,42,16.10
2012,01,21,10,43,14.50
2012,01,21,10,44,14.50
2012,01,21,10,45,16.10
2012,01,21,10,46,12.90
2012,01,21,10,47,14.50
2012,01,21,10,48,8.10
2012,01,21,10,49,22.50
2012,01,21,10,50,22.50
2012,01,21,10,51,17.70
2012,01,21,10,52,22.50
2012,01,21,10,53,14.50
2012,01,21,10,54,16.10
2012,01,21,10,55,22.50
2012,01,21,10,56,12.90
2012,01,21,10,57,16.10
2012,01,21,10,58,9.60
2012,01,21,10,59,11.30
2012,01,21,11,00,11.30
2012,01,21,11,01,19.30
2012,01,21,11,02,12.90
2012,01,21,11,03,16.10
2012,01,21,11,04,14.50
2012,01,21,11,05,14.50
2012,01,21,11,06,12.90
2012,01,21,11,07,9.60
2012,01,21,11,08,12.90
2012,01,21,11,09,9.60
2012,01,21,11,10,9.60
2012,01,21,11,11,8.10
2012,01,21,11,12,12.90
2012,01,21,11,13,11.30
2012,01,21,11,14,12.90
2012,01,21,11,15,12.90
2012,01,21,11,16,11.30
2012,01,21,11,17,12.90
2012,01,21,11,18,12.90
2012,01,21,11,19,14.50
2012,01,21,11,20,16.10
2012,01,21,11,21,12.90
2012,01,21,11,22,14.50
2012,01,21,11,23,12.90
2012,01,21,11,24,16.10
2012,01,21,11,25,27.40
2012,01,21,11,26,40.20
2012,01,21,11,27,40.20
2012,01,21,11,28,25.70
2012,01,21,11,29,20.90
2012,01,21,11,30,32.20
2012,01,21,11,31,37.00
2012,01,21,11,32,30.60
2012,01,21,11,33,33.80
2012,01,21,11,34,33.80
2012,01,21,11,35,30.60
2012,01,21,11,36,30.60
2012,01,21,11,37,24.20
2012,01,21,11,38,24.20
2012,01,21,11,39,27.40
2012,01,21,11,40,19.30
2012,01,21,11,41,12.90
2012,01,21,11,42,12.90
2012,01,21,11,43,11.30
2012,01,21,11,44,9.60
2012,01,21,11,45,12.90
2012,01,21,11,46,12.90
2012,01,21,11,47,11.30
2012,01,21,11,48,16.10
2012,01,21,11,49,12.90
2012,01,21,11,50,20.90
2012,01,21,11,51,14.50
2012,01,21,11,52,8.10
2012,01,21,11,53,17.70
2012,01,21,11,54,12.90
2012,01,21,11,55,16.10
2012,01,21,11,56,12.90
2012,01,21,11,57,11.30
2012,01,21,11,58,14.50
2012,01,21,11,59,11.30
2012,01,21,12,00,12.90
2012,01,21,12,01,11.30
2012,01,21,12,02,16.10
2012,01,21,12,03,12.90
2012,01,21,12,04,16.10
2012,01,21,12,05,16.10
2012,01,21,12,06,24.20
2012,01,21,12,07,24.20
2012,01,21,12,08,22.50
2012,01,21,12,09,19.30
2012,01,21,12,10,19.30
2012,01,21,12,11,20.90
2012,01,21,12,12,33.80
2012,01,21,12,13,30.60
2012,01,21,12,14,32.20
2012,01,21,12,15,24.20
2012,01,21,12,16,17.70
2012,01,21,12,17,17.70
2012,01,21,12,18,14.50
2012,01,21,12,19,9.60
2012,01,21,12,20,9.60
2012,01,21,12,21,12.90
2012,01,21,12,22,11.30
2012,01,21,12,23,14.50
2012,01,21,12,24,8.10
2012,01,21,12,25,6.40
2012,01,21,12,26,6.40
2012,01,21,12,27,8.10
2012,01,21,12,28,11.30
2012,01,21,12,29,11.30
2012,01,21,12,30,8.10
2012,01,21,12,31,9.60
2012,01,21,12,32,8.10
2012,01,21,12,33,14.50
2012,01,21,12,34,9.60
2012,01,21,12,35,8.10
2012,01,21,12,36,8.10
2012,01,21,12,37,8.10
2012,01,21,12,38,6.40
2012,01,21,12,39,6.40
2012,01,21,12,40,8.10
2012,01,21,12,41,6.40
2012,01,21,12,42,6.40
2012,01,21,12,43,8.10
2012,01,21,12,44,12.90
2012,01,21,12,45,12.90
2012,01,21,12,46,12.90
2012,01,21,12,47,16.10
2012,01,21,12,48,22.50
2012,01,21,12,49,25.70
2012,01,21,12,50,35.40
2012,01,21,12,51,20.90
2012,01,21,12,52,29.00
2012,01,21,12,53,24.20
2012,01,21,12,54,20.90
2012,01,21,12,55,17.70
2012,01,21,12,56,12.90
2012,01,21,12,57,19.30
2012,01,21,12,58,17.70
2012,01,21,12,59,22.50
2012,01,21,13,00,25.70
2012,01,21,13,01,29.00
2012,01,21,13,02,30.60
2012,01,21,13,03,25.70
2012,01,21,13,04,22.50
2012,01,21,13,05,29.00
2012,01,21,13,06,19.30
2012,01,21,13,07,24.20
2012,01,21,13,08,25.70
2012,01,21,13,09,25.70
2012,01,21,13,10,29.00
2012,01,21,13,11,22.50
2012,01,21,13,12,17.70
2012,01,21,13,13,17.70
2012,01,21,13,14,24.20
2012,01,21,13,15,29.00
2012,01,21,13,16,35.40
2012,01,21,13,17,32.20
2012,01,21,13,18,30.60
2012,01,21,13,19,24.20
2012,01,21,13,20,30.60
2012,01,21,13,21,25.70
2012,01,21,13,22,22.50
2012,01,21,13,23,20.90
2012,01,21,13,24,24.20
2012,01,21,13,25,25.70
2012,01,21,13,26,32.20
2012,01,21,13,27,24.20
2012,01,21,13,28,29.00
2012,01,21,13,29,35.40
2012,01,21,13,30,30.60
2012,01,21,13,31,30.60
2012,01,21,13,32,33.80
2012,01,21,13,33,37.00
2012,01,21,13,34,30.60
2012,01,21,13,35,24.20
2012,01,21,13,36,29.00
2012,01,21,13,37,33.80
2012,01,21,13,38,32.20
2012,01,21,13,39,29.00
2012,01,21,13,40,37.00
2012,01,21,13,41,19.30
2012,01,21,13,42,16.10
2012,01,21,13,43,22.50
2012,01,21,13,44,27.40
2012,01,21,13,45,16.10
2012,01,21,13,46,22.50
2012,01,21,13,47,20.90
2012,01,21,13,48,17.70
2012,01,21,13,49,12.90
2012,01,21,13,50,14.50
2012,01,21,13,51,24.20
2012,01,21,13,52,20.90
2012,01,21,13,53,25.70
2012,01,21,13,54,25.70
2012,01,21,13,55,22.50
2012,01,21,13,56,32.20
2012,01,21,13,57,17.70
2012,01,21,13,58,29.00
2012,01,21,13,59,25.70
2012,01,21,14,00,29.00
2012,01,21,14,01,24.20
2012,01,21,14,02,29.00
2012,01,21,14,03,27.40
2012,01,21,14,04,22.50
2012,01,21,14,05,24.20
2012,01,21,14,06,17.70
2012,01,21,14,07,29.00
2012,01,21,14,08,32.20
2012,01,21,14,09,19.30
2012,01,21,14,10,17.70
2012,01,21,14,11,30.60
2012,01,21,14,12,27.40
2012,01,21,14,13,20.90
2012,01,21,14,14,17.70
2012,01,21,14,15,17.70
2012,01,21,14,16,22.50
2012,01,21,14,17,16.10
2012,01,21,14,18,17.70
2012,01,21,14,19,19.30
2012,01,21,14,20,12.90
2012,01,21,14,21,12.90
2012,01,21,14,22,16.10
2012,01,21,14,23,12.90
2012,01,21,14,24,14.50
2012,01,21,14,25,14.50
2012,01,21,14,26,17.70
2012,01,21,14,27,24.20
2012,01,21,14,28,17.70
2012,01,21,14,29,16.10
2012,01,21,14,30,11.30
2012,01,21,14,31,19.30
2012,01,21,14,32,14.50
2012,01,21,14,33,19.30
2012,01,21,14,34,16.10
2012,01,21,14,35,16.10
2012,01,21,14,36,17.70
2012,01,21,14,37,30.60
2012,01,21,14,38,19.30
2012,01,21,14,39,19.30
2012,01,21,14,40,22.50
2012,01,21,14,41,27.40
2012,01,21,14,42,29.00
2012,01,21,14,43,22.50
2012,01,21,14,44,20.90
2012,01,21,14,45,20.90
2012,01,21,14,46,19.30
2012,01,21,14,47,12.90
2012,01,21,14,48,12.90
2012,01,21,14,49,16.10
2012,01,21,14,50,16.10
2012,01,21,14,51,11.30
2012,01,21,14,52,9.60
2012,01,21,14,53,12.90
2012,01,21,14,54,11.30
2012,01,21,14,55,16.10
2012,01,21,14,56,9.60
2012,01,21,14,57,14.50
2012,01,21,14,58,19.30
2012,01,21,14,59,12.90
2012,01,21,15,00,12.90
2012,01,21,15,01,14.50
2012,01,21,15,02,14.50
2012,01,21,15,03,12.90
2012,01,21,15,04,19.30
2012,01,21,15,05,14.50
2012,01,21,15,06,9.60
2012,01,21,15,07,17.70
2012,01,21,15,08,17.70
2012,01,21,15,09,20.90
2012,01,21,15,10,17.70
2012,01,21,15,11,17.70
2012,01,21,15,12,9.60
2012,01,21,15,13,17.70
2012,01,21,15,14,25.70
2012,01,21,15,15,24.20
2012,01,21,15,16,12.90
2012,01,21,15,17,16.10
2012,01,21,15,18,11.30
2012,01,21,15,19,14.50
2012,01,21,15,20,14.50
2012,01,21,15,21,12.90
2012,01,21,15,22,9.60
2012,01,21,15,23,11.30
2012,01,21,15,24,9.60
2012,01,21,15,25,14.50
2012,01,21,15,26,6.40
2012,01,21,15,27,9.60
2012,01,21,15,28,8.10
2012,01,21,15,29,6.40
2012,01,21,15,30,12.90
2012,01,21,15,31,11.30
2012,01,21,15,32,12.90
2012,01,21,15,33,17.70
2012,01,21,15,34,17.70
2012,01,21,15,35,24.20
2012,01,21,15,36,24.20
2012,01,21,15,37,30.60
2012,01,21,15,38,25.70
2012,01,21,15,39,30.60
2012,01,21,15,40,22.50
2012,01,21,15,41,29.00
2012,01,21,15,42,22.50
2012,01,21,15,43,24.20
2012,01,21,15,44,19.30
2012,01,21,15,45,19.30
2012,01,21,15,46,16.10
2012,01,21,15,47,14.50
2012,01,21,15,48,14.50
2012,01,21,15,49,12.90
2012,01,21,15,50,11.30
2012,01,21,15,51,12.90
2012,01,21,15,52,14.50
2012,01,21,15,53,19.30
2012,01,21,15,54,33.80
2012,01,21,15,55,27.40
2012,01,21,15,56,29.00
2012,01,21,15,57,22.50
2012,01,21,15,58,17.70
2012,01,21,15,59,20.90
2012,01,21,16,00,19.30
2012,01,21,16,01,25.70
2012,01,21,16,02,20.90
2012,01,21,16,03,22.50
2012,01,21,16,04,14.50
2012,01,21,16,05,16.10
2012,01,21,16,06,22.50
2012,01,21,16,07,27.40
2012,01,21,16,08,48.30
2012,01,21,16,09,32.20
2012,01,21,16,10,45.10
2012,01,21,16,11,40.20
2012,01,21,16,12,38.60
2012,01,21,16,13,27.40
2012,01,21,16,14,22.50
2012,01,21,16,15,30.60
2012,01,21,16,16,25.70
2012,01,21,16,17,22.50
2012,01,21,16,18,29.00
2012,01,21,16,19,19.30
2012,01,21,16,20,24.20
2012,01,21,16,21,25.70
2012,01,21,16,22,19.30
2012,01,21,16,23,9.60
2012,01,21,16,24,11.30
2012,01,21,16,25,17.70
2012,01,21,16,26,11.30
2012,01,21,16,27,12.90
2012,01,21,16,28,14.50
2012,01,21,16,29,11.30
2012,01,21,16,30,9.60
2012,01,21,16,31,6.40
2012,01,21,16,32,9.60
2012,01,21,16,33,9.60
2012,01,21,16,34,4.80
2012,01,21,16,35,6.40
2012,01,21,16,36,9.60
2012,01,21,16,37,8.10
2012,01,21,16,38,4.80
2012,01,21,16,39,4.80
2012,01,21,16,40,6.40
2012,01,21,16,41,8.10
2012,01,21,16,42,6.40
2012,01,21,16,43,4.80
2012,01,21,16,44,4.80
2012,01,21,16,45,4.80
2012,01,21,16,46,4.80
2012,01,21,16,47,4.80
2012,01,21,16,48,4.80
2012,01,21,16,49,4.80
2012,01,21,16,50,4.80
2012,01,21,16,51,3.20
2012,01,21,16,52,3.20
2012,01,21,16,53,4.80
2012,01,21,16,54,4.80
2012,01,21,16,55,4.80
2012,01,21,16,56,3.20
2012,01,21,16,57,3.20
2012,01,21,16,58,1.60
2012,01,21,17,07,3.20
2012,01,21,17,08,1.60
2012,01,21,17,09,3.20
2012,01,21,17,10,3.20
2012,01,21,17,13,3.20
2012,01,21,17,14,3.20
2012,01,21,17,16,1.60
2012,01,21,17,17,1.60
2012,01,21,17,19,3.20
2012,01,21,17,20,3.20
2012,01,21,17,21,1.60
2012,01,21,17,24,1.60
2012,01,21,17,25,3.20
2012,01,21,17,26,4.80
2012,01,21,17,27,4.80
2012,01,21,17,28,4.80
2012,01,21,17,29,6.40
2012,01,21,17,30,8.10
2012,01,21,17,31,9.60
2012,01,21,17,32,6.40
2012,01,21,17,33,6.40
2012,01,21,17,34,11.30
2012,01,21,17,35,12.90
2012,01,21,17,36,16.10
2012,01,21,17,37,11.30
2012,01,21,17,38,20.90